This demonstration page uses our WeatherBlox Daily Observations layout. Learn more.

Left ArrowRight Arrow

31.31129, -92.44514

Hourly Observations for October 19, 2015

Temp ( °F °C ) Dew Point ( °F °C ) Humidity (%) Winds ( mph kmh ) Pressure ( in mb ) Visibility ( mi km ) Precip ( " mm )
12:53 am 00:53 Clear 48 8.9 32 0 54 54 NW 3 6 30.30 1026 10 16 0.00 0.00
1:53 am 01:53 Clear 47 8.3 37 2.8 69 69 Calm 30.30 1026 10 16 0.00 0.00
2:53 am 02:53 Clear 46 7.8 32 0 58 58 Calm 30.30 1026 10 16 0.00 0.00
3:53 am 03:53 Clear 45 7.2 32 0 61 61 Calm 30.30 1026 8 13 0.00 0.00
4:53 am 04:53 Hazy 42 5.6 35 1.7 76 76 NW 3 6 30.30 1026 6 10 0.00 0.00
5:53 am 05:53 Clear 42 5.6 29 -1.7 60 60 Calm 30.30 1026 10 16 0.00 0.00
6:53 am 06:53 Clear 41 5 34 1.1 76 76 Calm 30.31 1026 10 16 0.00 0.00
7:53 am 07:53 Sunny 42 5.6 36 2.2 79 79 Calm 30.32 1027 7 11 0.00 0.00
8:53 am 08:53 Sunny 56 13.3 38 3.3 51 51 Calm 30.31 1027 10 16 0.00 0.00
9:53 am 09:53 Sunny 64 17.8 38 3.3 38 38 ESE 10 17 30.32 1027 10 16 0.00 0.00
10:53 am 10:53 Sunny 68 20 40 4.4 36 36 ESE 8 13 30.32 1027 10 16 0.00 0.00
11:53 am 11:53 Sunny 72 22.2 40 4.4 31 31 ENE 8 13 30.30 1026 10 16 0.00 0.00
12:53 pm 12:53 Sunny 76 24.4 38 3.3 25 25 E 12 19 30.27 1025 10 16 0.00 0.00
1:53 pm 13:53 Sunny 78 25.6 37 2.8 23 23 E 9 15 30.24 1024 10 16 0.00 0.00
2:53 pm 14:53 Sunny 79 26.1 35 1.7 20 20 ESE 12 19 30.21 1023 10 16 0.00 0.00
3:53 pm 15:53 Sunny 79 26.1 33 0.6 19 19 VRB 6 9 30.19 1022 10 16 0.00 0.00
4:53 pm 16:53 Sunny 78 25.6 34 1.1 20 20 ESE 9 15 30.18 1022 10 16 0.00 0.00
5:53 pm 17:53 Sunny 76 24.4 38 3.3 25 25 ESE 6 9 30.18 1022 10 16 0.00 0.00
6:53 pm 18:53 Clear 68 20 44 6.7 42 42 E 5 7 30.18 1022 10 16 0.00 0.00
7:53 pm 19:53 Clear 63 17.2 45 7.2 52 52 Calm 30.19 1023 10 16 0.00 0.00
8:53 pm 20:53 Clear 61 16.1 47 8.3 60 60 Calm 30.19 1023 10 16 0.00 0.00
9:53 pm 21:53 Clear 58 14.4 43 6.1 58 58 Calm 30.20 1023 10 16 0.00 0.00
10:53 pm 22:53 Clear 58 14.4 45 7.2 62 62 Calm 30.22 1023 10 16 0.00 0.00
11:53 pm 23:53 Clear 59 15 53 11.7 81 81 ESE 6 9 30.21 1023 10 16 0.00 0.00

Powered by AerisWeather